User: anonymous   Login
Location: Caltech
(34.1382°N, 118.1253°W)
Time: 11:54:58
(UTC-07:00)
Language:

Cosmos 1980 Rocket - Orbit

View from above orbital plane
View from above orbital plane
View from above satellite
View from above satellite

Ground track
Ground track

The orbit data is extracted from the following two-line orbital elements,

1 19650U 88102B   14303.17770118  .00000265  00000-0  15949-3 0  4183
2 19650 071.0008 235.7219 0015117 212.7900 244.5156 14.15679674339983
Epoch (UTC): 30 October 2014 04:15:53
Eccentricity: 0.0015117
inclination: 71.0008°
perigee height: 829 km
apogee height: 851 km
right ascension of ascending node: 235.7219°
argument of perigee: 212.7900°
revolutions per day: 14.15679674
mean anomaly at epoch: 244.5156°
orbit number at epoch: 33998

The dashed part of the orbit path shows where the satellite is in the earth's shadow,  

DLR